| time (UTC) | temp F | wind direction | speed knots | gust knots | rain 1hr in | rain 24hr in | rain mn in | humidity % | barometer mb |
| 20260503224815 | 48 | 244 | 3.5 | 7.8 | 0.03 | 0.05 | 0.05 | 84 | 1008.1 |
| 20260503223814 | 48 | 223 | 3.5 | 8.7 | 0.00 | 0.04 | 0.04 | 84 | 1008.3 |
| 20260503222744 | 49 | 228 | 2.6 | 8.7 | 0.00 | 0.03 | 0.03 | 83 | 1008.4 |
| 20260503221724 | 49 | 218 | 2.6 | 10.4 | 0.00 | 0.03 | 0.03 | 83 | 1008.3 |
| 20260503220655 | 49 | 255 | 3.5 | 10.4 | 0.00 | 0.03 | 0.03 | 83 | 1008.4 |
| 20260503215714 | 49 | 220 | 3.5 | 7.8 | 0.00 | 0.03 | 0.03 | 84 | 1008.5 |
| 20260503214654 | 48 | 210 | 2.6 | 9.6 | 0.00 | 0.03 | 0.03 | 86 | 1008.5 |
| 20260503213633 | 48 | 238 | 3.5 | 10.4 | 0.00 | 0.03 | 0.03 | 86 | 1008.4 |
| 20260503212649 | 48 | 223 | 1.7 | 10.4 | 0.00 | 0.03 | 0.03 | 87 | 1008.3 |
| 20260503210550 | 47 | 240 | 2.6 | 8.7 | 0.00 | 0.03 | 0.03 | 87 | 1008.5 |
| 20260503204401 | 47 | 227 | 2.6 | 11.3 | 0.00 | 0.03 | 0.03 | 86 | 1008.7 |
| 20260503203332 | 46 | 196 | 3.5 | 11.3 | 0.00 | 0.03 | 0.03 | 85 | 1008.8 |
| 20260503201248 | 46 | 234 | 4.3 | 11.3 | 0.00 | 0.03 | 0.03 | 84 | 1009.2 |
| 20260503200311 | 47 | 227 | 3.5 | 9.6 | 0.04 | 0.03 | 0.03 | 83 | 1009.3 |
| 20260503195325 | 47 | 236 | 2.6 | 13.0 | 0.03 | 0.02 | 0.02 | 82 | 1009.3 |
| 20260503194323 | 47 | 223 | 6.1 | 13.0 | 0.00 | 0.01 | 0.01 | 79 | 1009.4 |
| 20260503192246 | 48 | 243 | 6.1 | 18.2 | 0.00 | 0.00 | 0.00 | 72 | 1009.7 |
| 20260503191252 | 49 | 282 | 2.6 | 13.0 | 0.00 | 0.00 | 0.00 | 69 | 1009.8 |
| 20260503190253 | 50 | 252 | 0.9 | 7.0 | 0.00 | 0.00 | 0.00 | 71 | 1009.9 |
| 20260503185230 | 50 | 251 | 1.7 | 11.3 | 0.00 | 0.00 | 0.00 | 68 | 1010.1 |
| 20260503184239 | 51 | 246 | 4.3 | 17.4 | 0.00 | 0.00 | 0.00 | 63 | 1010.3 |
| 20260503183243 | 52 | 237 | 6.1 | 17.4 | 0.00 | 0.00 | 0.00 | 56 | 1010.4 |
| 20260503182306 | 53 | 227 | 6.1 | 15.6 | 0.00 | 0.00 | 0.00 | 49 | 1010.3 |
| 20260503175039 | 55 | 288 | 5.2 | 16.5 | 0.00 | 0.00 | 0.00 | 44 | 1010.2 |
| 20260503172912 | 55 | 245 | 4.3 | 13.9 | 0.00 | 0.00 | 0.00 | 44 | 1010.4 |
| 20260503171916 | 55 | 276 | 4.3 | 13.0 | 0.00 | 0.00 | 0.00 | 42 | 1010.7 |
| 20260503140223 | 50 | 219 | 2.6 | 10.4 | 0.00 | 0.00 | 0.00 | 43 | 1013.2 |
| 20260503131133 | 46 | 205 | 2.6 | 10.4 | 0.00 | 0.00 | 0.00 | 52 | 1013.7 |
| 20260503090424 | 29 | 248 | 0.9 | 2.6 | 0.00 | 0.00 | 0.00 | 71 | 1014.9 |
| 20260503081201 | 30 | 248 | 0.9 | 3.5 | 0.00 | 0.00 | 0.00 | 69 | 1015.0 |
| 20260503080220 | 30 | 248 | 0.9 | 3.5 | 0.00 | 0.00 | 0.00 | 68 | 1015.1 |
| 20260503072028 | 29 | 248 | 0.9 | 3.5 | 0.00 | 0.00 | 0.00 | 69 | 1015.2 |
| 20260503071021 | 29 | 248 | 0.9 | 2.6 | 0.00 | 0.00 | 0.00 | 68 | 1015.2 |
| 20260503054801 | 29 | 248 | 0.0 | 3.5 | 0.00 | 0.00 | 0.00 | 70 | 1015.8 |
| 20260503053748 | 30 | 248 | 0.0 | 1.7 | 0.00 | 0.00 | 0.00 | 70 | 1015.9 |
| 20260503052759 | 30 | 248 | 0.0 | 1.7 | 0.00 | 0.00 | 0.00 | 70 | 1016.0 |
| 20260503051818 | 30 | 248 | 0.0 | 2.6 | 0.00 | 0.00 | 0.00 | 70 | 1016.1 |
| 20260503050751 | 30 | 248 | 0.9 | 3.5 | 0.00 | 0.00 | 0.00 | 72 | 1016.1 |
| 20260503045719 | 30 | 249 | 0.9 | 3.5 | 0.00 | 0.00 | 0.00 | 73 | 1016.2 |
| 20260503044714 | 30 | 251 | 0.0 | 2.6 | 0.00 | 0.00 | 0.00 | 74 | 1016.2 |
| 20260503043723 | 31 | 251 | 0.9 | 2.6 | 0.00 | 0.00 | 0.00 | 73 | 1016.3 |
| 20260503042722 | 31 | 251 | 0.0 | 2.6 | 0.00 | 0.00 | 0.00 | 72 | 1016.3 |
| 20260503041743 | 31 | 251 | 0.0 | 2.6 | 0.00 | 0.00 | 0.00 | 71 | 1016.5 |
| 20260503035604 | 32 | 251 | 0.9 | 2.6 | 0.00 | 0.00 | 0.00 | 71 | 1016.6 |
| 20260503034601 | 32 | 251 | 0.0 | 3.5 | 0.00 | 0.00 | 0.00 | 68 | 1016.7 |
| 20260503033537 | 32 | 251 | 0.9 | 3.5 | 0.00 | 0.00 | 0.00 | 67 | 1016.7 |
| 20260503031502 | 33 | 251 | 0.9 | 3.5 | 0.00 | 0.00 | 0.00 | 69 | 1016.8 |
| 20260503030449 | 33 | 251 | 0.0 | 1.7 | 0.00 | 0.00 | 0.00 | 68 | 1016.7 |
| 20260503025450 | 33 | 251 | 0.0 | 1.7 | 0.00 | 0.00 | 0.00 | 67 | 1016.9 |
| 20260503024501 | 34 | 251 | 0.0 | 1.7 | 0.00 | 0.00 | 0.00 | 66 | 1017.0 |
| 20260503023458 | 34 | 251 | 0.0 | 2.6 | 0.00 | 0.00 | 0.00 | 65 | 1017.0 |
| 20260503022521 | 34 | 251 | 0.0 | 2.6 | 0.00 | 0.00 | 0.00 | 64 | 1017.1 |
| 20260503021455 | 35 | 251 | 0.9 | 1.7 | 0.00 | 0.00 | 0.00 | 62 | 1017.1 |
| 20260503020433 | 36 | 251 | 0.0 | 1.7 | 0.00 | 0.00 | 0.00 | 59 | 1017.0 |
| 20260503015421 | 36 | 251 | 0.0 | 1.7 | 0.00 | 0.00 | 0.00 | 56 | 1017.0 |
| 20260503014423 | 37 | 251 | 0.0 | 0.9 | 0.00 | 0.00 | 0.00 | 55 | 1017.0 |
| 20260503013419 | 37 | 251 | 0.0 | 1.7 | 0.00 | 0.00 | 0.00 | 55 | 1016.9 |
| 20260503012345 | 38 | 251 | 0.9 | 2.6 | 0.00 | 0.01 | 0.00 | 54 | 1016.9 |
| 20260503010216 | 39 | 251 | 0.9 | 3.5 | 0.00 | 0.01 | 0.00 | 51 | 1016.7 |
| 20260503005225 | 39 | 251 | 1.7 | 4.3 | 0.00 | 0.01 | 0.00 | 50 | 1016.7 |
| 20260503004214 | 40 | 251 | 1.7 | 5.2 | 0.00 | 0.01 | 0.00 | 48 | 1016.7 |
| 20260503003159 | 40 | 252 | 1.7 | 8.7 | 0.00 | 0.02 | 0.00 | 47 | 1016.8 |
| 20260503002224 | 41 | 252 | 2.6 | 10.4 | 0.00 | 0.02 | 0.00 | 45 | 1016.7 |
| 20260503001210 | 41 | 235 | 3.5 | 10.4 | 0.00 | 0.02 | 0.00 | 43 | 1016.7 |
| 20260503000206 | 42 | 252 | 3.5 | 10.4 | 0.00 | 0.02 | 0.00 | 42 | 1016.7 |
| 20260502235230 | 43 | 263 | 4.3 | 11.3 | 0.00 | 0.02 | 0.00 | 42 | 1016.7 |
| 20260502234228 | 43 | 257 | 4.3 | 11.3 | 0.00 | 0.02 | 0.00 | 41 | 1016.8 |
| 20260502233204 | 43 | 295 | 5.2 | 11.3 | 0.00 | 0.02 | 0.00 | 41 | 1016.8 |
| 20260502232202 | 44 | 268 | 5.2 | 11.3 | 0.00 | 0.02 | 0.00 | 40 | 1016.9 |
| 20260502231200 | 44 | 240 | 4.3 | 10.4 | 0.00 | 0.02 | 0.00 | 43 | 1016.8 |
| 20260502230232 | 45 | 281 | 5.2 | 10.4 | 0.00 | 0.02 | 0.00 | 43 | 1016.8 |
| 20260502225159 | 45 | 270 | 5.2 | 11.3 | 0.00 | 0.02 | 0.00 | 40 | 1016.8 |